This is the latest recevied weather packets stored in our database for station/object K6POO-1. If no packets are shown the sender has not sent any weather packets the latest 10 day(s).
| Time | Temp. | Humidity | Pressure | Rain* | Wind** | Luminosity | Snow |
|---|---|---|---|---|---|---|---|
| 1788312676 | 18.89° C | 66% | 1016.2 hPa | 0 mm | - | 51 W/m² | - |
| 1788312371 | 19.44° C | 66% | 1016.3 hPa | 0 mm | - | 57 W/m² | - |
| 1788312066 | 18.89° C | 68% | 1016.2 hPa | 0 mm | - | 61 W/m² | - |
| 1788311762 | 19.44° C | 67% | 1016.2 hPa | 0 mm | - | 73 W/m² | - |
| 1788311461 | 20° C | 66% | 1016.1 hPa | 0 mm | - | 84 W/m² | - |
| 1788311160 | 19.44° C | 67% | 1016.1 hPa | 0 mm | - | 94 W/m² | - |
| 1788310857 | 19.44° C | 67% | 1016.3 hPa | 0 mm | - | 106 W/m² | - |
| 1788310554 | 19.44° C | 66% | 1016.2 hPa | 0 mm | - | 118 W/m² | - |
| 1788310251 | 20° C | 64% | 1016.2 hPa | 0 mm | - | 130 W/m² | - |
| 1788309950 | 20° C | 62% | 1016.1 hPa | 0 mm | - | 147 W/m² | - |
| 1788309645 | 20° C | 62% | 1016.2 hPa | 0 mm | - | 162 W/m² | - |
| 1788309340 | 19.44° C | 63% | 1016.1 hPa | 0 mm | - | 175 W/m² | - |
| 1788309039 | 19.44° C | 63% | 1016.1 hPa | 0 mm | - | 196 W/m² | - |
| 1788308731 | 19.44° C | 64% | 1016.2 hPa | 0 mm | - | 213 W/m² | - |
| 1788308426 | 20° C | 63% | 1016.2 hPa | 0 mm | - | 233 W/m² | - |
| 1788308120 | 20° C | 61% | 1016.1 hPa | 0 mm | - | 253 W/m² | - |
| 1788307816 | 19.44° C | 61% | 1016.2 hPa | 0 mm | - | 272 W/m² | - |
| 1788307511 | 20° C | 61% | 1016.1 hPa | 0 mm | - | 294 W/m² | - |
| 1788307205 | 20° C | 62% | 1016.1 hPa | 0 mm | - | 311 W/m² | - |
| 1788306900 | 19.44° C | 64% | 1016.2 hPa | 0 mm | - | 318 W/m² | - |
| 1788306595 | 20° C | 62% | 1016.3 hPa | 0 mm | - | 326 W/m² | - |
| 1788306289 | 20° C | 64% | 1016.2 hPa | 0 mm | - | 342 W/m² | - |
| 1788305984 | 19.44° C | 66% | 1016.3 hPa | 0 mm | - | 154 W/m² | - |
| 1788305679 | 19.44° C | 66% | 1016.3 hPa | 0 mm | - | 408 W/m² | - |
| 1788305376 | 19.44° C | 68% | 1016.2 hPa | 0 mm | - | 90 W/m² | - |
* Rain latest hour (hover to see other rain measurements)
** Current wind speed in m/s (hover to see current wind gust speed)